Temperature
18 18 19 20 17 15 17 18 19 20 21 22 22 22 20 20 20 19 20 20 19 18 18 16 16 15 15 14 14 13 13 12 12 12 11 11 11 11 11 11 11 10 10 10 10 11 11 11 11
18 19 19 19 15 15 17 18 19 20 22 23 23 22 21 20 21 21 20 20 19 18 18 17 16 15 15 14 14 13 12 12 12 11 11 11 11 10 11 11 11 11 11 11 11 11 11 11 11
18 19 19 15 16 16 18 19 19 21 23 23 22 22 21 20 20 21 21 20 19 19 18 17 16 16 15 14 14 13 12 12 11 11 11 11 10 10 10 11 11 11 11 11 11 11 11 11 11
19 19 19 15 17 17 18 19 20 21 22 23 22 20 20 20 20 20 20 20 19 19 18 17 17 16 15 14 13 13 12 12 11 11 11 10 10 10 11 11 11 11 11 11 11 11 11 12 12
19 19 16 16 18 18 18 20 21 20 21 22 22 19 19 19 20 20 20 19 19 19 18 17 16 15 15 14 13 13 12 12 11 11 10 10 10 10 11 11 11 11 11 11 11 11 11 11 11
19 17 15 16 18 19 20 21 22 21 21 21 21 19 19 19 19 19 19 19 19 18 18 17 16 15 14 14 13 12 12 12 11 11 10 10 10 10 10 11 11 11 11 11 11 11 11 11 11
18 15 16 17 18 19 20 21 21 20 21 21 21 18 18 18 19 19 18 18 18 18 17 17 16 15 14 14 13 12 12 11 11 10 10 10 10 10 10 10 10 10 11 11 11 11 11 11 11
19 15 17 17 18 19 20 21 21 21 21 21 21 19 18 19 18 18 18 17 17 17 17 16 16 15 14 13 13 12 12 11 11 10 10 10 10 10 10 10 10 10 10 10 10 10 11 11 11
19 15 16 18 18 19 20 20 21 21 21 21 20 20 20 19 18 18 17 17 16 16 16 16 15 15 14 13 12 12 11 11 11 10 10 10 10 10 9 10 10 10 10 10 10 10 10 10 10
19 15 17 19 19 19 19 20 20 21 20 19 19 19 19 18 18 18 17 17 17 16 16 15 15 14 14 13 12 12 11 11 10 10 10 10 9 9 9 9 9 9 9 9 9 9 9 9 9
18 17 17 19 20 20 19 19 20 20 18 19 19 19 18 18 18 17 17 17 17 16 16 15 15 14 14 13 12 11 11 11 10 10 10 10 9 9 9 9 9 9 9 9 9 9 9 9 9
18 18 19 19 20 20 19 19 19 19 19 19 19 19 18 18 18 17 17 17 16 16 16 15 14 14 13 13 12 11 11 10 10 10 10 9 9 9 9 9 9 8 8 8 8 8 8 8 8
18 18 19 19 19 19 19 19 18 19 19 19 18 18 18 18 17 17 17 17 16 16 16 15 14 14 13 12 12 11 11 10 10 10 10 9 9 9 9 9 8 8 8 8 8 8 8 8 7
18 18 18 19 19 19 18 18 17 18 18 18 18 18 17 17 17 17 17 17 16 16 15 15 14 13 13 12 12 11 11 10 10 10 10 9 9 9 9 9 8 8 8 8 8 8 7 7 7
19 17 16 17 18 18 18 16 16 19 18 17 17 17 17 17 17 17 17 17 16 16 15 15 14 13 12 12 11 11 11 10 10 10 10 9 9 9 9 9 8 8 8 8 8 8 7 7 7
17 16 15 16 17 17 17 16 16 18 17 17 17 16 16 16 16 16 16 16 16 15 15 14 13 13 12 12 11 11 10 10 10 10 10 9 9 9 9 9 8 8 8 8 8 7 7 7 7
15 14 15 16 17 16 16 15 16 17 17 16 16 16 15 15 15 15 15 15 15 15 14 14 13 13 12 12 11 11 10 10 10 10 10 9 9 9 9 8 8 8 8 7 7 7 7 7 7
15 15 15 16 17 16 15 15 15 16 16 15 15 15 15 14 14 14 14 14 14 14 14 13 13 12 12 12 11 11 10 10 10 10 10 9 9 9 9 8 8 8 8 7 7 7 7 6 6
15 15 15 15 16 16 14 14 15 16 15 13 13 14 14 14 14 14 14 14 14 13 13 13 13 12 12 12 11 11 10 10 10 10 9 9 9 9 9 8 8 8 7 7 7 7 6 6 6
15 15 15 15 16 16 15 14 14 14 14 14 13 13 13 13 13 13 13 13 13 13 13 13 13 12 12 12 11 11 10 10 10 10 9 9 9 9 8 8 8 7 7 7 7 6 6 6 6
15 15 15 15 15 15 15 14 14 14 14 14 14 14 14 14 13 13 13 13 13 13 13 13 13 12 12 12 12 11 11 10 10 10 9 9 9 8 8 8 7 7 7 7 6 6 6 6 6
14 15 15 15 14 13 14 12 13 14 13 12 12 12 13 13 13 13 13 13 13 13 12 12 12 12 12 12 11 11 11 10 10 9 9 8 8 8 7 7 7 7 6 6 6 6 5 5 5
15 16 16 16 14 13 12 13 13 13 13 11 10 11 12 13 13 13 13 13 12 12 12 12 12 12 12 11 11 11 10 10 9 9 8 8 8 7 7 7 6 6 6 6 5 5 5 4 4
15 15 14 11 11 12 12 11 12 12 12 12 11 11 12 13 13 13 12 12 12 12 12 12 12 12 11 11 11 10 10 10 9 8 8 8 7 7 7 6 6 6 6 5 5 5 4 4 4
14 13 12 12 11 11 12 12 13 14 13 13 12 11 12 12 13 12 12 12 12 12 11 11 11 11 11 11 10 10 9 9 9 8 8 7 7 7 6 6 6 5 5 5 5 4 4 4 3
13 13 12 12 11 12 13 12 14 14 14 14 14 12 12 12 12 13 13 12 12 12 11 11 11 11 11 10 10 9 9 8 8 7 7 7 6 6 6 5 5 5 5 4 4 4 4 3 3
12 12 12 12 12 12 12 13 14 15 13 12 12 12 11 12 12 13 13 12 12 11 11 11 11 10 10 10 9 9 8 8 7 7 7 6 6 5 5 5 5 4 4 4 4 3 3 3 2
13 12 11 11 11 11 12 13 14 15 14 12 10 11 11 12 12 13 13 12 12 11 11 10 10 10 10 9 9 8 8 7 7 7 6 6 5 5 5 4 4 4 4 3 3 3 2 2 2
13 13 12 11 11 11 12 13 14 14 13 12 11 12 12 12 13 13 13 12 12 11 10 10 10 9 9 9 8 8 7 7 6 6 6 5 5 4 4 4 3 3 3 3 2 2 1 1 1
12 12 12 11 11 11 11 12 14 13 13 12 12 13 13 13 13 13 13 12 11 10 10 10 9 9 9 8 8 7 7 6 6 5 5 4 4 4 3 3 3 3 2 2 1 1 1 0 -0
Wind_Speed
5 4 3 4 5 5 2 4 4 2 2 1 3 8 8 6 4 4 3 12 11 16 22 22 21 20 18 16 15 14 14 13 12 12 11 11 11 11 11 11 10 10 10 11 11 11 11 11 11
2 2 4 5 5 2 4 3 4 5 6 4 4 6 6 2 2 6 5 11 16 20 22 22 22 20 19 17 16 15 14 13 12 11 11 11 11 10 10 9 10 10 10 10 10 10 10 10 9
2 2 4 5 4 5 4 4 6 4 5 4 3 4 5 3 2 6 6 14 16 18 21 22 23 21 19 18 17 15 13 12 12 12 11 10 10 9 9 8 8 8 8 8 8 9 9 9 8
3 4 5 4 3 6 6 6 5 4 2 3 5 5 3 2 3 5 10 14 15 14 20 22 24 22 20 18 17 16 14 12 12 11 10 9 8 8 7 7 7 7 7 7 7 7 7 7 7
4 4 4 1 4 5 5 6 7 6 2 0 4 5 2 7 2 8 12 14 15 12 19 22 23 22 20 19 17 16 14 13 12 11 10 9 8 7 7 6 5 5 5 5 5 5 5 5 5
4 5 4 2 4 3 4 3 5 5 3 2 4 5 1 4 4 8 11 12 13 14 18 21 23 22 20 19 18 16 15 13 12 11 10 9 8 7 6 5 4 4 3 3 3 3 3 3 3
4 4 2 3 3 2 2 1 6 6 5 1 4 6 1 3 5 8 10 10 11 15 16 17 20 21 20 19 18 17 15 14 12 11 10 9 8 8 6 5 4 4 2 1 0 1 2 2 3
5 4 1 2 1 1 4 1 3 5 4 1 5 8 6 7 5 7 8 9 10 10 12 14 17 18 18 18 18 17 15 14 13 12 11 9 9 8 7 6 5 5 4 3 3 3 3 4 4
4 4 0 2 0 2 4 4 5 2 5 5 4 3 4 6 7 8 7 6 8 9 9 11 13 15 16 16 17 17 16 15 13 12 12 10 9 8 7 8 8 7 6 5 5 5 6 6 6
5 3 4 3 3 3 1 2 2 3 4 3 3 3 4 6 7 8 8 9 10 12 11 9 11 13 15 14 15 15 14 14 13 12 12 11 11 10 9 10 10 9 8 8 8 8 8 8 7
4 5 4 3 3 4 2 1 1 2 2 4 5 6 5 5 5 7 8 9 11 12 12 11 10 14 14 11 12 12 12 12 13 13 13 13 11 10 9 9 10 11 10 9 9 9 9 9 10
3 5 4 4 3 4 4 2 1 3 6 6 7 8 6 6 7 7 8 8 8 10 12 12 11 11 13 12 11 11 10 10 11 13 14 12 9 8 8 8 10 10 10 9 10 10 11 12 12
2 4 4 4 4 4 4 4 3 5 5 5 6 6 6 5 4 5 5 6 8 10 11 12 10 10 11 10 9 10 10 10 11 12 13 13 9 7 8 8 9 10 10 10 9 10 10 11 11
3 3 6 6 6 4 5 4 3 8 5 6 7 6 4 3 2 1 2 4 7 9 10 10 11 10 11 8 7 8 10 10 10 10 12 13 12 9 8 7 8 9 10 11 10 10 9 8 9
2 4 8 7 6 5 4 5 7 7 7 7 7 6 5 3 3 1 2 4 7 9 9 10 10 9 9 8 8 8 9 9 8 9 10 10 10 10 8 6 6 8 10 9 8 8 7 5 5
3 2 5 7 2 4 7 8 8 5 10 9 7 6 5 3 3 2 2 4 6 8 8 8 8 8 7 7 7 6 6 6 5 6 7 8 8 8 6 4 5 7 6 5 3 3 3 4 4
2 2 5 7 2 4 6 8 7 5 10 9 8 7 7 5 4 4 4 6 7 9 9 8 8 8 7 6 6 6 5 4 4 3 3 3 3 3 3 3 4 4 3 2 2 2 3 4 5
5 5 5 5 4 5 7 10 9 6 8 11 9 8 8 7 4 3 5 7 8 8 9 9 8 7 7 5 5 4 4 3 3 3 2 2 1 0 1 1 2 2 1 2 2 3 3 4 5
5 5 7 8 6 6 10 12 11 9 7 9 9 9 9 8 5 5 6 7 8 8 8 8 8 6 6 4 4 3 2 1 2 2 2 2 2 2 1 1 2 1 1 3 3 3 4 3 2
7 7 7 7 4 4 7 12 12 10 11 13 16 13 11 9 7 6 6 5 6 7 7 7 8 7 6 4 3 3 3 2 1 2 3 3 3 2 1 1 1 1 1 3 3 2 2 3 1
7 6 6 7 5 4 5 9 8 6 7 9 11 12 12 13 12 9 7 6 6 7 7 7 7 7 6 5 4 4 4 3 3 3 2 4 4 3 2 2 1 1 1 2 3 3 3 4 3
7 7 6 4 2 5 2 6 8 5 4 9 11 11 12 12 11 10 9 8 7 6 6 7 7 7 6 6 6 5 4 2 1 1 2 3 4 4 3 2 2 2 1 3 4 3 3 3 4
8 5 3 2 3 4 3 5 9 3 7 11 13 14 13 13 13 12 10 9 7 6 7 7 7 6 6 6 7 6 4 2 1 1 2 3 4 5 4 3 3 2 2 3 4 4 4 3 4
5 4 4 5 3 4 7 7 8 6 10 10 13 14 14 13 12 11 9 8 7 6 6 6 7 6 5 6 6 6 6 4 3 2 2 3 3 3 5 4 4 4 4 4 5 5 6 5 6
5 5 2 3 1 7 5 6 10 9 9 12 18 19 15 14 14 13 12 11 9 9 8 7 8 6 5 6 5 5 5 4 3 1 0 1 2 3 4 4 4 4 5 6 6 5 6 6 6
7 9 7 6 5 5 3 8 9 6 6 8 12 15 15 14 14 15 15 13 11 10 9 8 8 6 6 6 5 4 4 3 2 1 1 1 2 3 4 5 5 6 7 7 6 5 6 6 6
8 7 8 5 3 4 7 7 8 2 3 5 11 13 16 16 16 15 14 13 12 11 10 9 9 7 6 6 5 4 3 3 2 1 1 1 2 3 4 5 5 6 7 7 5 5 7 7 7
8 8 6 5 5 5 7 6 6 6 5 6 11 15 16 15 14 14 14 13 12 10 9 9 9 8 6 6 5 3 3 2 1 1 2 3 4 3 4 5 6 6 6 6 6 7 7 7 8
7 6 6 6 5 6 4 7 6 7 8 10 13 15 17 17 17 15 14 12 11 10 9 9 8 7 6 6 4 3 2 1 1 1 3 3 3 4 5 6 7 7 8 7 7 8 9 9 9
9 9 9 6 6 6 4 7 6 5 6 9 11 11 13 14 14 13 13 12 11 11 10 9 8 7 6 5 4 3 2 1 1 3 4 4 5 5 6 6 7 8 8 8 8 9 9 9 10
Wind_Direction
322 357 66 55 58 53 274 258 194 153 116 196 119 107 117 127 148 169 185 148 149 154 168 168 165 162 158 153 146 141 135 129 123 119 114 110 105 100 94 89 86 81 77 74 71 69 67 65 65
360 37 60 62 87 90 274 249 157 154 167 155 95 98 101 101 168 144 140 159 152 157 165 166 166 164 161 157 152 147 141 135 131 127 122 117 111 105 99 93 88 84 80 76 73 71 68 67 67
360 73 84 77 118 182 210 208 177 183 169 130 90 82 118 152 182 180 180 151 149 158 163 166 167 166 164 160 157 153 149 145 138 134 129 123 117 110 105 99 93 87 83 79 75 71 70 67 66
52 51 59 81 221 228 201 205 182 136 75 89 107 77 74 339 224 193 142 144 148 156 162 168 169 169 167 164 162 158 156 153 146 140 137 132 126 119 113 107 101 95 87 82 77 72 67 65 63
62 73 66 29 251 249 219 195 157 121 129 86 108 104 45 334 41 125 139 149 153 157 164 170 171 171 169 168 165 163 162 161 157 152 147 143 138 131 127 122 115 106 96 86 78 71 66 59 55
54 67 87 250 263 263 258 212 124 100 87 48 99 108 193 315 122 144 150 155 157 160 165 172 173 173 172 171 170 168 167 167 165 163 160 156 151 147 148 144 139 130 114 95 77 62 52 44 34
100 93 168 243 266 265 245 175 118 118 98 116 123 120 216 269 195 159 151 151 154 161 164 171 175 175 176 175 175 174 174 173 173 173 171 168 167 167 168 169 171 172 171 164 132 2 354 351 348
125 100 19 301 273 295 312 74 113 123 141 114 106 144 197 220 185 131 122 139 149 158 164 168 171 174 176 177 178 179 179 180 180 180 177 177 181 186 187 187 196 205 215 229 248 272 289 299 306
94 78 282 278 8 313 340 40 353 65 81 43 46 158 201 145 125 116 108 123 148 163 168 168 168 172 174 176 181 181 183 185 186 187 185 184 188 195 203 201 214 224 231 243 257 269 279 284 285
93 140 228 241 195 189 5 43 339 49 53 66 57 48 87 115 137 152 158 163 168 175 178 174 170 170 172 178 182 183 186 189 190 190 189 190 195 203 210 212 222 231 239 250 263 272 278 282 277
160 195 232 264 211 174 161 314 334 129 213 198 176 169 155 153 168 186 192 184 184 178 177 179 175 172 173 175 176 180 185 188 192 195 196 198 202 210 215 218 226 233 240 247 260 273 276 271 267
215 243 235 240 217 179 180 196 287 193 216 199 173 164 163 173 189 201 204 200 187 174 180 178 175 173 176 175 177 180 183 188 194 201 203 200 200 207 212 214 219 225 233 240 250 256 261 263 264
240 270 290 264 236 214 195 214 231 238 212 167 139 133 148 166 197 214 207 196 176 174 176 176 175 173 173 173 179 183 189 194 200 204 207 206 202 205 210 215 217 225 232 236 241 246 250 253 257
235 260 290 277 254 234 213 244 220 251 194 151 135 136 134 141 177 200 201 179 173 168 166 166 170 169 166 167 170 179 188 196 201 207 212 210 209 209 209 218 222 229 234 237 237 239 241 247 252
271 314 313 284 239 228 171 267 239 233 156 149 145 136 114 93 82 90 182 166 162 157 152 156 161 157 157 159 167 172 181 186 194 209 214 211 210 211 211 216 225 236 242 244 246 250 250 255 257
11 2 302 293 215 174 151 251 265 209 156 162 162 146 123 95 65 48 92 120 134 134 135 144 149 146 150 152 156 158 164 172 190 204 207 213 214 215 214 220 235 247 252 251 251 253 261 265 268
9 261 261 297 220 170 183 240 262 182 163 172 175 162 143 117 76 54 75 106 120 126 125 123 127 135 137 132 129 123 122 127 142 154 162 186 200 207 207 226 248 260 260 264 266 267 259 274 278
234 236 253 272 265 185 216 245 257 224 185 183 180 170 157 141 133 102 90 98 105 109 111 112 113 119 117 105 97 89 83 83 89 96 102 100 87 170 211 249 271 279 277 289 290 284 278 268 275
216 234 263 262 253 207 230 249 253 235 203 187 184 177 167 158 145 111 99 101 101 101 106 111 114 117 117 108 109 107 100 71 52 48 47 35 9 343 310 286 298 303 284 281 286 286 291 289 291
225 248 267 284 288 220 252 263 258 230 207 193 185 180 172 159 147 131 116 110 112 118 115 116 119 120 119 119 122 123 121 103 77 20 17 5 353 342 322 276 288 304 299 307 304 294 293 288 284
228 225 240 258 306 310 294 292 274 252 205 187 183 178 172 165 160 153 140 130 127 131 135 130 126 120 116 115 104 83 66 48 29 10 349 342 346 341 332 307 283 290 264 285 288 277 262 281 289
238 229 219 240 260 281 252 285 281 252 204 189 184 181 179 169 160 157 152 149 149 150 139 130 126 120 118 117 117 123 125 132 193 296 334 345 1 353 341 325 307 297 286 283 282 271 252 252 278
214 206 197 214 204 277 244 230 279 232 222 214 196 189 184 174 166 164 162 158 154 150 142 135 125 119 120 117 123 123 122 134 115 49 24 3 354 356 349 337 329 315 297 283 285 287 272 249 255
163 86 43 47 85 270 224 196 272 226 216 206 195 191 185 176 168 161 156 149 147 148 142 139 131 126 125 122 124 130 133 130 108 63 21 354 342 342 346 340 330 314 301 290 286 281 279 269 264
126 109 356 317 296 249 213 200 249 247 224 198 190 189 184 176 168 164 163 164 163 161 158 153 144 140 137 130 130 137 141 138 137 145 356 335 331 324 320 328 320 310 302 298 294 289 285 277 272
179 162 182 216 232 273 229 221 252 268 263 203 181 176 175 177 176 174 174 171 170 169 166 160 156 154 151 143 143 141 139 136 150 175 203 266 276 284 296 313 312 309 308 306 300 291 284 282 276
160 195 184 159 257 270 273 276 299 280 28 139 155 165 180 183 182 180 177 175 173 172 173 169 163 160 161 156 147 141 140 141 163 216 250 280 285 287 308 314 311 310 308 303 299 290 288 288 279
161 164 136 162 201 241 273 269 256 258 223 176 175 182 187 185 185 183 180 179 177 174 170 166 164 164 164 160 157 154 160 171 190 227 294 298 300 303 311 312 308 304 302 300 298 293 287 287 282
164 175 179 179 186 185 251 269 234 240 215 198 198 193 189 188 188 186 184 180 174 167 165 166 166 160 162 163 160 154 175 194 210 268 282 287 291 297 300 300 302 302 300 298 295 290 289 285 284
184 188 169 180 223 199 204 267 277 273 227 201 201 199 194 192 189 184 178 172 171 171 170 170 168 166 169 166 161 171 190 215 262 277 281 282 284 286 288 292 295 295 295 293 290 290 291 286 285
Height
1536 1537 1539 1541 1545 1555 1556 1547 1541 1539 1537 1536 1536 1537 1539 1543 1546 1552 1548 1546 1547 1548 1549 1551 1552 1554 1555 1556 1557 1558 1559 1559 1559 1559 1559 1559 1558 1558 1558 1557 1557 1556 1556 1556 1555 1555 1554 1554 1553
1536 1538 1540 1541 1551 1563 1557 1544 1540 1536 1535 1536 1536 1537 1539 1541 1542 1544 1544 1545 1546 1547 1548 1550 1552 1554 1555 1556 1557 1558 1559 1559 1559 1559 1559 1559 1559 1559 1559 1558 1558 1557 1557 1556 1556 1555 1555 1554 1554
1537 1538 1540 1543 1553 1558 1551 1541 1538 1535 1535 1535 1536 1538 1540 1541 1542 1543 1544 1544 1546 1547 1548 1550 1551 1553 1555 1556 1557 1558 1559 1559 1559 1560 1560 1560 1560 1559 1559 1559 1558 1558 1557 1557 1557 1556 1556 1555 1555
1538 1540 1541 1548 1550 1546 1541 1537 1535 1535 1535 1535 1536 1539 1541 1542 1543 1543 1543 1544 1545 1547 1548 1550 1551 1552 1554 1556 1557 1558 1558 1559 1560 1560 1560 1560 1560 1560 1560 1559 1559 1559 1558 1558 1557 1557 1556 1556 1556
1538 1539 1545 1551 1547 1540 1535 1533 1533 1534 1535 1535 1536 1539 1540 1542 1542 1543 1543 1544 1546 1547 1548 1549 1551 1552 1554 1555 1556 1557 1558 1559 1560 1560 1560 1560 1560 1560 1560 1560 1559 1559 1559 1558 1558 1558 1557 1557 1557
1539 1540 1552 1554 1546 1538 1534 1532 1532 1533 1534 1536 1537 1539 1540 1541 1542 1542 1543 1544 1546 1547 1547 1549 1550 1552 1553 1554 1556 1557 1558 1559 1560 1560 1561 1561 1561 1560 1560 1560 1560 1560 1559 1559 1559 1558 1558 1558 1557
1540 1544 1550 1547 1544 1539 1534 1533 1532 1533 1534 1536 1537 1539 1540 1541 1542 1542 1543 1544 1545 1546 1547 1548 1549 1551 1552 1554 1555 1557 1558 1558 1559 1560 1560 1561 1561 1561 1560 1560 1560 1560 1560 1559 1559 1559 1558 1558 1557
1539 1544 1547 1547 1543 1539 1534 1533 1533 1533 1534 1536 1536 1537 1538 1540 1541 1542 1542 1543 1544 1545 1547 1548 1549 1550 1551 1553 1555 1556 1557 1558 1559 1559 1560 1560 1560 1561 1561 1560 1560 1560 1560 1559 1559 1559 1558 1558 1557
1539 1547 1550 1545 1542 1539 1535 1534 1534 1534 1534 1535 1535 1536 1537 1539 1540 1541 1541 1542 1543 1544 1545 1546 1548 1549 1551 1552 1554 1555 1557 1558 1558 1559 1559 1560 1560 1560 1560 1560 1560 1560 1559 1559 1559 1558 1558 1557 1557
1539 1548 1543 1539 1537 1536 1535 1534 1534 1533 1533 1535 1535 1536 1536 1538 1539 1539 1539 1539 1540 1541 1543 1545 1546 1548 1550 1551 1553 1554 1556 1557 1557 1558 1559 1559 1559 1559 1559 1559 1559 1559 1559 1558 1558 1558 1557 1556 1556
1537 1541 1538 1536 1535 1535 1535 1534 1534 1533 1533 1533 1533 1534 1535 1536 1537 1537 1537 1537 1538 1539 1541 1543 1545 1547 1548 1550 1551 1553 1554 1555 1556 1557 1558 1558 1558 1558 1558 1558 1558 1558 1558 1557 1557 1556 1556 1555 1554
1536 1535 1535 1534 1534 1533 1533 1532 1532 1531 1531 1531 1532 1533 1533 1534 1534 1534 1535 1535 1536 1537 1539 1541 1543 1545 1547 1549 1550 1552 1553 1554 1555 1556 1556 1557 1557 1557 1557 1557 1557 1556 1556 1556 1555 1555 1554 1553 1552
1535 1534 1533 1532 1532 1531 1530 1530 1530 1528 1529 1529 1530 1531 1531 1531 1531 1532 1532 1533 1534 1535 1537 1539 1541 1543 1545 1547 1549 1550 1551 1553 1554 1554 1555 1555 1555 1555 1555 1555 1555 1555 1554 1554 1553 1552 1551 1550 1550
1533 1532 1531 1530 1529 1528 1528 1528 1528 1525 1526 1527 1528 1528 1529 1529 1529 1528 1529 1529 1531 1533 1535 1537 1540 1542 1544 1545 1547 1549 1550 1551 1552 1553 1553 1554 1554 1554 1554 1553 1553 1553 1552 1551 1550 1549 1548 1548 1547
1532 1532 1531 1527 1525 1525 1527 1529 1525 1522 1524 1525 1526 1526 1526 1526 1526 1526 1526 1527 1528 1531 1533 1536 1538 1540 1542 1544 1546 1548 1549 1550 1551 1551 1552 1552 1552 1552 1551 1551 1551 1550 1550 1549 1548 1547 1545 1544 1543
1533 1535 1538 1528 1524 1524 1530 1532 1520 1520 1521 1522 1523 1524 1524 1524 1524 1524 1524 1525 1527 1529 1532 1535 1537 1539 1541 1543 1545 1546 1547 1548 1549 1549 1550 1550 1550 1549 1549 1548 1548 1547 1546 1545 1544 1543 1542 1540 1539
1538 1542 1538 1531 1524 1524 1527 1527 1519 1518 1519 1520 1521 1522 1522 1523 1523 1523 1523 1524 1526 1528 1531 1533 1535 1537 1540 1542 1543 1544 1545 1546 1547 1547 1547 1547 1547 1547 1546 1545 1545 1544 1543 1542 1540 1539 1538 1536 1534
1541 1539 1536 1532 1524 1524 1526 1524 1518 1517 1516 1516 1518 1519 1520 1521 1522 1522 1523 1524 1526 1528 1530 1532 1534 1536 1538 1540 1541 1543 1544 1544 1545 1545 1545 1545 1544 1543 1543 1542 1541 1540 1539 1538 1536 1535 1533 1531 1529
1532 1534 1535 1530 1522 1523 1524 1521 1516 1514 1515 1515 1515 1517 1518 1519 1520 1521 1522 1524 1525 1527 1529 1531 1533 1535 1536 1538 1539 1541 1542 1542 1543 1543 1542 1542 1541 1540 1540 1539 1538 1537 1535 1534 1532 1531 1529 1527 1525
1530 1532 1532 1526 1520 1521 1521 1518 1511 1508 1508 1507 1509 1512 1514 1516 1518 1520 1521 1523 1525 1526 1528 1530 1532 1534 1535 1537 1538 1539 1540 1540 1540 1540 1540 1539 1538 1537 1537 1536 1534 1533 1532 1530 1529 1527 1525 1523 1522
1528 1529 1527 1527 1522 1519 1521 1519 1509 1503 1502 1504 1506 1508 1510 1512 1514 1517 1520 1522 1524 1526 1528 1529 1531 1533 1535 1536 1537 1538 1538 1539 1538 1538 1538 1537 1536 1535 1534 1533 1532 1530 1529 1527 1526 1524 1522 1519 1518
1527 1521 1522 1523 1528 1531 1525 1532 1511 1503 1502 1502 1503 1505 1508 1510 1513 1515 1518 1521 1523 1525 1527 1529 1531 1533 1534 1535 1536 1536 1537 1537 1537 1536 1535 1535 1534 1532 1531 1530 1529 1527 1526 1524 1522 1520 1518 1516 1513
1519 1516 1518 1520 1525 1531 1528 1530 1513 1503 1503 1500 1499 1501 1504 1507 1510 1513 1517 1520 1522 1525 1527 1529 1530 1532 1533 1534 1535 1535 1535 1535 1535 1534 1533 1532 1531 1530 1529 1527 1526 1524 1522 1520 1518 1516 1514 1512 1509
1514 1518 1522 1528 1532 1537 1526 1530 1516 1503 1494 1492 1494 1497 1500 1504 1508 1512 1516 1519 1521 1524 1526 1528 1529 1531 1532 1533 1533 1534 1533 1533 1532 1532 1531 1530 1529 1527 1526 1524 1523 1521 1519 1516 1514 1512 1509 1507 1504
1515 1527 1538 1537 1542 1535 1519 1521 1507 1486 1483 1483 1486 1491 1496 1501 1505 1509 1512 1516 1519 1522 1524 1526 1528 1529 1531 1531 1532 1532 1531 1531 1530 1529 1528 1527 1526 1524 1522 1521 1519 1517 1514 1512 1509 1506 1504 1501 1498
1515 1521 1535 1539 1538 1527 1514 1516 1494 1481 1478 1478 1481 1487 1493 1498 1502 1505 1509 1513 1516 1519 1522 1524 1526 1528 1529 1529 1530 1529 1529 1529 1528 1527 1525 1524 1522 1520 1519 1517 1514 1512 1509 1506 1503 1500 1498 1495 1491
1514 1518 1516 1526 1525 1527 1517 1503 1487 1478 1478 1478 1481 1486 1490 1494 1498 1502 1506 1510 1514 1517 1520 1522 1524 1525 1526 1527 1527 1527 1527 1526 1525 1524 1522 1521 1519 1517 1514 1512 1509 1507 1504 1501 1497 1494 1491 1488 1484
1502 1507 1518 1525 1531 1531 1517 1505 1495 1481 1479 1481 1482 1484 1487 1491 1495 1499 1503 1507 1511 1514 1517 1520 1521 1523 1524 1524 1525 1524 1524 1523 1522 1521 1519 1517 1515 1512 1510 1507 1504 1501 1498 1494 1491 1487 1484 1480 1477
1503 1506 1509 1516 1520 1525 1521 1505 1481 1478 1476 1478 1479 1480 1483 1487 1491 1495 1499 1503 1507 1511 1514 1516 1518 1520 1521 1521 1522 1521 1521 1520 1519 1517 1515 1513 1511 1508 1505 1502 1499 1495 1492 1488 1484 1480 1476 1472 1469
1494 1497 1504 1514 1513 1514 1516 1503 1475 1474 1473 1474 1476 1478 1481 1484 1487 1491 1496 1500 1504 1507 1510 1512 1515 1516 1517 1518 1518 1518 1518 1516 1515 1513 1511 1509 1506 1503 1500 1496 1493 1489 1485 1481 1477 1473 1469 1465 1461